Year,Month,Day,Hour,Minute,Value (Times are PST for temperature in C)
2010,05,04,00,00,5.10
2010,05,04,00,01,5.10
2010,05,04,00,02,5.10
2010,05,04,00,03,5.10
2010,05,04,00,04,5.10
2010,05,04,00,05,5.10
2010,05,04,00,06,5.10
2010,05,04,00,07,5.10
2010,05,04,00,08,5.10
2010,05,04,00,09,5.10
2010,05,04,00,10,5.10
2010,05,04,00,11,5.10
2010,05,04,00,12,5.10
2010,05,04,00,13,5.10
2010,05,04,00,14,5.10
2010,05,04,00,15,5.10
2010,05,04,00,16,5.10
2010,05,04,00,17,5.10
2010,05,04,00,18,5.10
2010,05,04,00,19,5.20
2010,05,04,00,20,5.20
2010,05,04,00,21,5.20
2010,05,04,00,22,5.20
2010,05,04,00,23,5.20
2010,05,04,00,24,5.20
2010,05,04,00,25,5.20
2010,05,04,00,26,5.20
2010,05,04,00,27,5.20
2010,05,04,00,28,5.20
2010,05,04,00,29,5.20
2010,05,04,00,30,5.20
2010,05,04,00,31,5.20
2010,05,04,00,32,5.20
2010,05,04,00,33,5.10
2010,05,04,00,34,5.10
2010,05,04,00,35,5.10
2010,05,04,00,36,5.10
2010,05,04,00,37,5.10
2010,05,04,00,38,5.10
2010,05,04,00,39,5.10
2010,05,04,00,40,5.10
2010,05,04,00,41,5.10
2010,05,04,00,42,5.10
2010,05,04,00,43,5.10
2010,05,04,00,44,5.20
2010,05,04,00,45,5.10
2010,05,04,00,46,5.10
2010,05,04,00,47,5.10
2010,05,04,00,48,5.10
2010,05,04,00,49,5.10
2010,05,04,00,50,5.10
2010,05,04,00,51,5.10
2010,05,04,00,52,5.10
2010,05,04,00,53,5.10
2010,05,04,00,54,5.10
2010,05,04,00,55,5.10
2010,05,04,00,56,5.10
2010,05,04,00,57,5.10
2010,05,04,00,58,5.10
2010,05,04,00,59,5.10
2010,05,04,01,00,5.10
2010,05,04,01,01,5.10
2010,05,04,01,02,5.10
2010,05,04,01,03,5.10
2010,05,04,01,04,5.10
2010,05,04,01,05,5.10
2010,05,04,01,06,5.00
2010,05,04,01,07,5.00
2010,05,04,01,08,5.00
2010,05,04,01,09,5.00
2010,05,04,01,10,4.90
2010,05,04,01,11,4.90
2010,05,04,01,12,4.90
2010,05,04,01,13,4.90
2010,05,04,01,14,4.80
2010,05,04,01,15,4.80
2010,05,04,01,16,4.80
2010,05,04,01,17,4.80
2010,05,04,01,18,4.70
2010,05,04,01,19,4.70
2010,05,04,01,20,4.70
2010,05,04,01,21,4.70
2010,05,04,01,22,4.70
2010,05,04,01,23,4.70
2010,05,04,01,24,4.70
2010,05,04,01,25,4.70
2010,05,04,01,26,4.70
2010,05,04,01,27,4.70
2010,05,04,01,28,4.70
2010,05,04,01,29,4.70
2010,05,04,01,30,4.70
2010,05,04,01,31,4.70
2010,05,04,01,32,4.70
2010,05,04,01,33,4.70
2010,05,04,01,34,4.70
2010,05,04,01,35,4.70
2010,05,04,01,36,4.70
2010,05,04,01,37,4.70
2010,05,04,01,38,4.70
2010,05,04,01,39,4.70
2010,05,04,01,40,4.70
2010,05,04,01,41,4.60
2010,05,04,01,42,4.70
2010,05,04,01,43,4.70
2010,05,04,01,44,4.70
2010,05,04,01,45,4.70
2010,05,04,01,46,4.70
2010,05,04,01,47,4.70
2010,05,04,01,48,4.70
2010,05,04,01,49,4.80
2010,05,04,01,50,4.80
2010,05,04,01,51,4.80
2010,05,04,01,52,4.80
2010,05,04,01,53,4.80
2010,05,04,01,54,4.80
2010,05,04,01,55,4.80
2010,05,04,01,56,4.80
2010,05,04,01,57,4.80
2010,05,04,01,58,4.80
2010,05,04,01,59,4.80
2010,05,04,02,00,4.80
2010,05,04,02,01,4.80
2010,05,04,02,02,4.80
2010,05,04,02,03,4.80
2010,05,04,02,04,4.80
2010,05,04,02,05,4.80
2010,05,04,02,06,4.80
2010,05,04,02,07,4.80
2010,05,04,02,08,4.80
2010,05,04,02,09,4.80
2010,05,04,02,10,4.80
2010,05,04,02,11,4.80
2010,05,04,02,12,4.80
2010,05,04,02,13,4.90
2010,05,04,02,14,4.90
2010,05,04,02,15,4.90
2010,05,04,02,16,4.90
2010,05,04,02,17,4.90
2010,05,04,02,18,4.90
2010,05,04,02,19,4.90
2010,05,04,02,20,4.80
2010,05,04,02,21,4.80
2010,05,04,02,22,4.80
2010,05,04,02,23,4.80
2010,05,04,02,24,4.80
2010,05,04,02,25,4.80
2010,05,04,02,26,4.80
2010,05,04,02,27,4.80
2010,05,04,02,28,4.80
2010,05,04,02,29,4.80
2010,05,04,02,30,4.80
2010,05,04,02,31,4.80
2010,05,04,02,32,4.70
2010,05,04,02,33,4.70
2010,05,04,02,34,4.70
2010,05,04,02,35,4.70
2010,05,04,02,36,4.70
2010,05,04,02,37,4.70
2010,05,04,02,38,4.60
2010,05,04,02,39,4.60
2010,05,04,02,40,4.60
2010,05,04,02,41,4.50
2010,05,04,02,42,4.50
2010,05,04,02,43,4.40
2010,05,04,02,44,4.40
2010,05,04,02,45,4.40
2010,05,04,02,46,4.30
2010,05,04,02,47,4.30
2010,05,04,02,48,4.30
2010,05,04,02,49,4.30
2010,05,04,02,50,4.20
2010,05,04,02,51,4.20
2010,05,04,02,52,4.20
2010,05,04,02,53,4.10
2010,05,04,02,54,4.10
2010,05,04,02,55,4.10
2010,05,04,02,56,4.10
2010,05,04,02,57,4.00
2010,05,04,02,58,4.00
2010,05,04,02,59,3.90
2010,05,04,03,00,3.90
2010,05,04,03,01,3.90
2010,05,04,03,02,3.90
2010,05,04,03,03,4.00
2010,05,04,03,04,4.00
2010,05,04,03,05,4.00
2010,05,04,03,06,4.00
2010,05,04,03,07,4.00
2010,05,04,03,08,4.00
2010,05,04,03,09,4.00
2010,05,04,03,10,4.00
2010,05,04,03,11,4.00
2010,05,04,03,12,4.00
2010,05,04,03,13,4.00
2010,05,04,03,14,4.00
2010,05,04,03,15,4.00
2010,05,04,03,16,4.00
2010,05,04,03,17,4.00
2010,05,04,03,18,4.00
2010,05,04,03,19,3.90
2010,05,04,03,20,3.90
2010,05,04,03,21,3.80
2010,05,04,03,22,3.80
2010,05,04,03,23,3.80
2010,05,04,03,24,3.80
2010,05,04,03,25,3.80
2010,05,04,03,26,3.80
2010,05,04,03,27,3.80
2010,05,04,03,28,3.80
2010,05,04,03,29,3.80
2010,05,04,03,30,3.80
2010,05,04,03,31,3.80
2010,05,04,03,32,3.90
2010,05,04,03,33,3.90
2010,05,04,03,34,3.90
2010,05,04,03,35,3.90
2010,05,04,03,36,3.90
2010,05,04,03,37,3.90
2010,05,04,03,38,3.90
2010,05,04,03,39,4.00
2010,05,04,03,40,4.00
2010,05,04,03,41,4.00
2010,05,04,03,42,4.00
2010,05,04,03,43,4.00
2010,05,04,03,44,4.00
2010,05,04,03,45,4.00
2010,05,04,03,46,4.00
2010,05,04,03,47,4.00
2010,05,04,03,48,4.00
2010,05,04,03,49,4.00
2010,05,04,03,50,4.00
2010,05,04,03,51,4.00
2010,05,04,03,52,4.00
2010,05,04,03,53,3.90
2010,05,04,03,54,3.90
2010,05,04,03,55,4.00
2010,05,04,03,56,4.00
2010,05,04,03,57,4.10
2010,05,04,03,58,4.10
2010,05,04,03,59,4.10
2010,05,04,04,00,4.20
2010,05,04,04,01,4.20
2010,05,04,04,02,4.20
2010,05,04,04,03,4.20
2010,05,04,04,04,4.20
2010,05,04,04,05,4.20
2010,05,04,04,06,4.20
2010,05,04,04,07,4.10
2010,05,04,04,08,4.10
2010,05,04,04,09,4.10
2010,05,04,04,10,4.00
2010,05,04,04,11,4.00
2010,05,04,04,12,4.00
2010,05,04,04,13,3.90
2010,05,04,04,14,3.80
2010,05,04,04,15,3.80
2010,05,04,04,16,3.70
2010,05,04,04,17,3.70
2010,05,04,04,18,3.60
2010,05,04,04,19,3.60
2010,05,04,04,20,3.50
2010,05,04,04,21,3.50
2010,05,04,04,22,3.50
2010,05,04,04,23,3.40
2010,05,04,04,24,3.40
2010,05,04,04,25,3.40
2010,05,04,04,26,3.40
2010,05,04,04,27,3.30
2010,05,04,04,28,3.30
2010,05,04,04,29,3.30
2010,05,04,04,30,3.30
2010,05,04,04,31,3.30
2010,05,04,04,32,3.30
2010,05,04,04,33,3.30
2010,05,04,04,34,3.30
2010,05,04,04,35,3.30
2010,05,04,04,36,3.30
2010,05,04,04,37,3.30
2010,05,04,04,38,3.30
2010,05,04,04,39,3.30
2010,05,04,04,40,3.30
2010,05,04,04,41,3.30
2010,05,04,04,42,3.30
2010,05,04,04,43,3.40
2010,05,04,04,44,3.40
2010,05,04,04,45,3.40
2010,05,04,04,46,3.40
2010,05,04,04,47,3.40
2010,05,04,04,48,3.40
2010,05,04,04,49,3.40
2010,05,04,04,50,3.40
2010,05,04,04,51,3.40
2010,05,04,04,52,3.40
2010,05,04,04,53,3.40
2010,05,04,04,54,3.40
2010,05,04,04,55,3.40
2010,05,04,04,56,3.40
2010,05,04,04,57,3.40
2010,05,04,04,58,3.40
2010,05,04,04,59,3.40
2010,05,04,05,00,3.40
2010,05,04,05,01,3.40
2010,05,04,05,02,3.40
2010,05,04,05,03,3.50
2010,05,04,05,04,3.50
2010,05,04,05,05,3.50
2010,05,04,05,06,3.50
2010,05,04,05,07,3.50
2010,05,04,05,08,3.50
2010,05,04,05,09,3.50
2010,05,04,05,10,3.40
2010,05,04,05,11,3.40
2010,05,04,05,12,3.40
2010,05,04,05,13,3.40
2010,05,04,05,14,3.40
2010,05,04,05,15,3.40
2010,05,04,05,16,3.40
2010,05,04,05,17,3.40
2010,05,04,05,18,3.40
2010,05,04,05,19,3.30
2010,05,04,05,20,3.30
2010,05,04,05,21,3.30
2010,05,04,05,22,3.30
2010,05,04,05,23,3.20
2010,05,04,05,24,3.20
2010,05,04,05,25,3.20
2010,05,04,05,26,3.20
2010,05,04,05,27,3.20
2010,05,04,05,28,3.20
2010,05,04,05,29,3.20
2010,05,04,05,30,3.20
2010,05,04,05,31,3.20
2010,05,04,05,32,3.20
2010,05,04,05,33,3.20
2010,05,04,05,34,3.10
2010,05,04,05,35,3.10
2010,05,04,05,36,3.00
2010,05,04,05,37,3.00
2010,05,04,05,38,2.90
2010,05,04,05,39,2.90
2010,05,04,05,40,2.90
2010,05,04,05,41,2.80
2010,05,04,05,42,2.80
2010,05,04,05,43,2.80
2010,05,04,05,44,2.80
2010,05,04,05,45,2.70
2010,05,04,05,46,2.80
2010,05,04,05,47,2.80
2010,05,04,05,48,2.80
2010,05,04,05,49,2.80
2010,05,04,05,50,2.80
2010,05,04,05,51,2.90
2010,05,04,05,52,2.90
2010,05,04,05,53,2.90
2010,05,04,05,54,3.00
2010,05,04,05,55,3.10
2010,05,04,05,56,3.10
2010,05,04,05,57,3.10
2010,05,04,05,58,3.10
2010,05,04,05,59,3.20
2010,05,04,06,00,3.20
2010,05,04,06,01,3.10
2010,05,04,06,02,3.10
2010,05,04,06,03,3.10
2010,05,04,06,04,3.10
2010,05,04,06,05,3.10
2010,05,04,06,06,3.10
2010,05,04,06,07,3.00
2010,05,04,06,08,3.00
2010,05,04,06,09,3.00
2010,05,04,06,10,2.90
2010,05,04,06,11,2.90
2010,05,04,06,12,2.90
2010,05,04,06,13,2.90
2010,05,04,06,14,2.90
2010,05,04,06,15,2.80
2010,05,04,06,16,2.80
2010,05,04,06,17,2.80
2010,05,04,06,18,2.80
2010,05,04,06,19,2.80
2010,05,04,06,20,2.80
2010,05,04,06,21,2.80
2010,05,04,06,22,2.90
2010,05,04,06,23,2.90
2010,05,04,06,24,2.90
2010,05,04,06,25,2.90
2010,05,04,06,26,2.90
2010,05,04,06,27,2.90
2010,05,04,06,28,2.90
2010,05,04,06,29,2.90
2010,05,04,06,30,2.90
2010,05,04,06,31,2.90
2010,05,04,06,32,2.90
2010,05,04,06,33,2.90
2010,05,04,06,34,2.90
2010,05,04,06,35,2.90
2010,05,04,06,36,2.90
2010,05,04,06,37,2.90
2010,05,04,06,38,2.90
2010,05,04,06,39,2.90
2010,05,04,06,40,2.80
2010,05,04,06,41,2.80
2010,05,04,06,42,2.80
2010,05,04,06,43,2.80
2010,05,04,06,44,2.80
2010,05,04,06,45,2.80
2010,05,04,06,46,2.80
2010,05,04,06,47,2.80
2010,05,04,06,48,2.80
2010,05,04,06,49,2.80
2010,05,04,06,50,2.80
2010,05,04,06,51,2.80
2010,05,04,06,52,2.80
2010,05,04,06,53,2.80
2010,05,04,06,54,2.80
2010,05,04,06,55,2.80
2010,05,04,06,56,2.80
2010,05,04,06,57,2.80
2010,05,04,06,58,2.80
2010,05,04,06,59,2.80
2010,05,04,07,00,2.80
2010,05,04,07,01,2.80
2010,05,04,07,02,2.80
2010,05,04,07,03,2.80
2010,05,04,07,04,2.80
2010,05,04,07,05,2.90
2010,05,04,07,06,2.90
2010,05,04,07,07,2.90
2010,05,04,07,08,3.00
2010,05,04,07,09,3.00
2010,05,04,07,10,3.00
2010,05,04,07,11,3.10
2010,05,04,07,12,3.10
2010,05,04,07,13,3.10
2010,05,04,07,14,3.10
2010,05,04,07,15,3.20
2010,05,04,07,16,3.20
2010,05,04,07,17,3.20
2010,05,04,07,18,3.30
2010,05,04,07,19,3.30
2010,05,04,07,20,3.30
2010,05,04,07,21,3.30
2010,05,04,07,22,3.40
2010,05,04,07,23,3.40
2010,05,04,07,24,3.40
2010,05,04,07,25,3.50
2010,05,04,07,26,3.50
2010,05,04,07,27,3.50
2010,05,04,07,28,3.50
2010,05,04,07,29,3.60
2010,05,04,07,30,3.60
2010,05,04,07,31,3.60
2010,05,04,07,32,3.60
2010,05,04,07,33,3.70
2010,05,04,07,34,3.70
2010,05,04,07,35,3.70
2010,05,04,07,36,3.70
2010,05,04,07,37,3.80
2010,05,04,07,38,3.80
2010,05,04,07,39,3.80
2010,05,04,07,40,3.80
2010,05,04,07,41,3.80
2010,05,04,07,42,3.80
2010,05,04,07,43,3.80
2010,05,04,07,44,3.90
2010,05,04,07,45,3.90
2010,05,04,07,46,3.90
2010,05,04,07,47,3.90
2010,05,04,07,48,4.00
2010,05,04,07,49,4.00
2010,05,04,07,50,4.00
2010,05,04,07,51,4.10
2010,05,04,07,52,4.20
2010,05,04,07,53,4.20
2010,05,04,07,54,4.30
2010,05,04,07,55,4.40
2010,05,04,07,56,4.40
2010,05,04,07,57,4.50
2010,05,04,07,58,4.50
2010,05,04,07,59,4.60
2010,05,04,08,00,4.70
2010,05,04,08,01,4.80
2010,05,04,08,02,4.80
2010,05,04,08,03,4.80
2010,05,04,08,04,4.90
2010,05,04,08,05,4.90
2010,05,04,08,06,5.00
2010,05,04,08,07,5.00
2010,05,04,08,08,5.10
2010,05,04,08,09,5.10
2010,05,04,08,10,5.10
2010,05,04,08,11,5.10
2010,05,04,08,12,5.10
2010,05,04,08,13,5.10
2010,05,04,08,14,5.20
2010,05,04,08,15,5.20
2010,05,04,08,16,5.20
2010,05,04,08,17,5.20
2010,05,04,08,18,5.30
2010,05,04,08,19,5.30
2010,05,04,08,20,5.30
2010,05,04,08,21,5.30
2010,05,04,08,22,5.30
2010,05,04,08,23,5.40
2010,05,04,08,24,5.40
2010,05,04,08,25,5.40
2010,05,04,08,26,5.40
2010,05,04,08,27,5.50
2010,05,04,08,28,5.50
2010,05,04,08,29,5.60
2010,05,04,08,30,5.60
2010,05,04,08,31,5.60
2010,05,04,08,32,5.70
2010,05,04,08,33,5.70
2010,05,04,08,34,5.70
2010,05,04,08,35,5.80
2010,05,04,08,36,5.90
2010,05,04,08,37,5.90
2010,05,04,08,38,5.90
2010,05,04,08,39,5.90
2010,05,04,08,40,5.90
2010,05,04,08,41,6.00
2010,05,04,08,42,6.10
2010,05,04,08,43,6.10
2010,05,04,08,44,6.20
2010,05,04,08,45,6.20
2010,05,04,08,46,6.30
2010,05,04,08,47,6.30
2010,05,04,08,48,6.30
2010,05,04,08,49,6.40
2010,05,04,08,50,6.40
2010,05,04,08,51,6.40
2010,05,04,08,52,6.40
2010,05,04,08,53,6.40
2010,05,04,08,54,6.50
2010,05,04,08,55,6.50
2010,05,04,08,56,6.60
2010,05,04,08,57,6.70
2010,05,04,08,58,6.70
2010,05,04,08,59,6.70
2010,05,04,09,00,6.70
2010,05,04,09,01,6.80
2010,05,04,09,02,6.80
2010,05,04,09,03,6.80
2010,05,04,09,04,6.80
2010,05,04,09,05,6.80
2010,05,04,09,06,6.80
2010,05,04,09,07,6.80
2010,05,04,09,08,6.80
2010,05,04,09,09,6.70
2010,05,04,09,10,6.70
2010,05,04,09,11,6.70
2010,05,04,09,12,6.70
2010,05,04,09,13,6.70
2010,05,04,09,14,6.70
2010,05,04,09,15,6.80
2010,05,04,09,16,6.80
2010,05,04,09,17,6.80
2010,05,04,09,18,6.90
2010,05,04,09,19,7.00
2010,05,04,09,20,7.10
2010,05,04,09,21,7.20
2010,05,04,09,22,7.20
2010,05,04,09,23,7.20
2010,05,04,09,24,7.20
2010,05,04,09,25,7.30
2010,05,04,09,26,7.30
2010,05,04,09,27,7.30
2010,05,04,09,28,7.30
2010,05,04,09,29,7.30
2010,05,04,09,30,7.40
2010,05,04,09,31,7.40
2010,05,04,09,32,7.50
2010,05,04,09,33,7.50
2010,05,04,09,34,7.50
2010,05,04,09,35,7.50
2010,05,04,09,36,7.50
2010,05,04,09,37,7.50
2010,05,04,09,38,7.40
2010,05,04,09,39,7.40
2010,05,04,09,40,7.50
2010,05,04,09,41,7.50
2010,05,04,09,42,7.50
2010,05,04,09,43,7.50
2010,05,04,09,44,7.60
2010,05,04,09,45,7.60
2010,05,04,09,46,7.60
2010,05,04,09,47,7.70
2010,05,04,09,48,7.70
2010,05,04,09,49,7.80
2010,05,04,09,50,7.80
2010,05,04,09,51,7.80
2010,05,04,09,52,7.90
2010,05,04,09,53,8.00
2010,05,04,09,54,8.00
2010,05,04,09,55,8.00
2010,05,04,09,56,8.10
2010,05,04,09,57,8.10
2010,05,04,09,58,8.10
2010,05,04,09,59,8.10
2010,05,04,10,00,8.10
2010,05,04,10,01,8.10
2010,05,04,10,02,8.10
2010,05,04,10,03,8.00
2010,05,04,10,04,8.00
2010,05,04,10,05,7.90
2010,05,04,10,06,7.90
2010,05,04,10,07,7.90
2010,05,04,10,08,7.90
2010,05,04,10,09,7.80
2010,05,04,10,10,7.80
2010,05,04,10,11,7.80
2010,05,04,10,12,7.80
2010,05,04,10,13,7.80
2010,05,04,10,14,7.80
2010,05,04,10,15,7.80
2010,05,04,10,16,7.80
2010,05,04,10,17,7.90
2010,05,04,10,18,7.90
2010,05,04,10,19,8.00
2010,05,04,10,20,8.00
2010,05,04,10,21,8.10
2010,05,04,10,22,8.20
2010,05,04,10,23,8.20
2010,05,04,10,24,8.30
2010,05,04,10,25,8.30
2010,05,04,10,26,8.30
2010,05,04,10,27,8.40
2010,05,04,10,28,8.40
2010,05,04,10,29,8.40
2010,05,04,10,30,8.50
2010,05,04,10,31,8.50
2010,05,04,10,32,8.50
2010,05,04,10,33,8.60
2010,05,04,10,34,8.70
2010,05,04,10,35,8.80
2010,05,04,10,36,9.00
2010,05,04,10,37,9.10
2010,05,04,10,38,9.30
2010,05,04,10,39,9.50
2010,05,04,10,40,9.50
2010,05,04,10,41,9.60
2010,05,04,10,42,9.70
2010,05,04,10,43,9.80
2010,05,04,10,44,9.90
2010,05,04,10,45,10.00
2010,05,04,10,46,10.10
2010,05,04,10,47,10.10
2010,05,04,10,48,10.20
2010,05,04,10,49,10.20
2010,05,04,10,50,10.20
2010,05,04,10,51,10.10
2010,05,04,10,52,10.10
2010,05,04,10,53,10.00
2010,05,04,10,54,10.00
2010,05,04,10,55,10.00
2010,05,04,10,56,9.90
2010,05,04,10,57,9.90
2010,05,04,10,58,9.80
2010,05,04,10,59,9.70
2010,05,04,11,00,9.70
2010,05,04,11,01,9.60
2010,05,04,11,02,9.50
2010,05,04,11,03,9.40
2010,05,04,11,04,9.30
2010,05,04,11,05,9.20
2010,05,04,11,06,9.10
2010,05,04,11,07,9.00
2010,05,04,11,08,8.90
2010,05,04,11,09,8.70
2010,05,04,11,10,8.50
2010,05,04,11,11,8.30
2010,05,04,11,12,8.10
2010,05,04,11,13,8.00
2010,05,04,11,14,7.90
2010,05,04,11,15,7.70
2010,05,04,11,16,7.60
2010,05,04,11,17,7.40
2010,05,04,11,18,7.30
2010,05,04,11,19,7.20
2010,05,04,11,20,7.10
2010,05,04,11,21,7.10
2010,05,04,11,22,7.00
2010,05,04,11,23,7.00
2010,05,04,11,24,7.00
2010,05,04,11,25,7.00
2010,05,04,11,26,7.00
2010,05,04,11,27,6.90
2010,05,04,11,28,6.90
2010,05,04,11,29,6.90
2010,05,04,11,30,6.90
2010,05,04,11,31,6.90
2010,05,04,11,32,6.90
2010,05,04,11,33,7.00
2010,05,04,11,34,7.10
2010,05,04,11,35,7.20
2010,05,04,11,36,7.30
2010,05,04,11,37,7.40
2010,05,04,11,38,7.50
2010,05,04,11,39,7.60
2010,05,04,11,40,7.70
2010,05,04,11,41,7.80
2010,05,04,11,42,7.80
2010,05,04,11,43,7.80
2010,05,04,11,44,7.90
2010,05,04,11,45,8.00
2010,05,04,11,46,8.10
2010,05,04,11,47,8.20
2010,05,04,11,48,8.30
2010,05,04,11,49,8.30
2010,05,04,11,50,8.50
2010,05,04,11,51,8.60
2010,05,04,11,52,8.70
2010,05,04,11,53,8.80
2010,05,04,11,54,8.80
2010,05,04,11,55,8.90
2010,05,04,11,56,9.00
2010,05,04,11,57,9.10
2010,05,04,11,58,9.20
2010,05,04,11,59,9.30
2010,05,04,12,00,9.40
2010,05,04,12,01,9.50
2010,05,04,12,02,9.50
2010,05,04,12,03,9.60
2010,05,04,12,04,9.70
2010,05,04,12,05,9.70
2010,05,04,12,06,9.80
2010,05,04,12,07,9.80
2010,05,04,12,08,9.80
2010,05,04,12,09,9.80
2010,05,04,12,10,9.60
2010,05,04,12,11,9.50
2010,05,04,12,12,9.40
2010,05,04,12,13,9.40
2010,05,04,12,14,9.30
2010,05,04,12,15,9.20
2010,05,04,12,16,9.10
2010,05,04,12,17,9.10
2010,05,04,12,18,9.10
2010,05,04,12,19,9.10
2010,05,04,12,20,9.20
2010,05,04,12,21,9.20
2010,05,04,12,22,9.30
2010,05,04,12,23,9.40
2010,05,04,12,24,9.50
2010,05,04,12,25,9.60
2010,05,04,12,26,9.70
2010,05,04,12,27,9.80
2010,05,04,12,28,9.80
2010,05,04,12,29,9.90
2010,05,04,12,30,10.00
2010,05,04,12,31,10.10
2010,05,04,12,32,10.20
2010,05,04,12,33,10.20
2010,05,04,12,34,10.30
2010,05,04,12,35,10.40
2010,05,04,12,36,10.40
2010,05,04,12,37,10.40
2010,05,04,12,38,10.30
2010,05,04,12,39,10.10
2010,05,04,12,40,10.00
2010,05,04,12,41,9.80
2010,05,04,12,42,9.70
2010,05,04,12,43,9.60
2010,05,04,12,44,9.40
2010,05,04,12,45,9.30
2010,05,04,12,46,9.30
2010,05,04,12,47,9.20
2010,05,04,12,48,9.20
2010,05,04,12,49,9.10
2010,05,04,12,50,9.10
2010,05,04,12,51,9.10
2010,05,04,12,52,9.00
2010,05,04,12,53,9.00
2010,05,04,12,54,9.00
2010,05,04,12,55,8.90
2010,05,04,12,56,8.80
2010,05,04,12,57,8.80
2010,05,04,12,58,8.60
2010,05,04,12,59,8.50
2010,05,04,13,00,8.50
2010,05,04,13,01,8.40
2010,05,04,13,02,8.20
2010,05,04,13,03,8.00
2010,05,04,13,04,7.80
2010,05,04,13,05,7.50
2010,05,04,13,06,7.30
2010,05,04,13,07,7.10
2010,05,04,13,08,6.90
2010,05,04,13,09,6.70
2010,05,04,13,10,6.60
2010,05,04,13,11,6.50
2010,05,04,13,12,6.30
2010,05,04,13,13,6.20
2010,05,04,13,14,6.00
2010,05,04,13,15,5.90
2010,05,04,13,16,5.80
2010,05,04,13,17,5.60
2010,05,04,13,18,5.40
2010,05,04,13,19,5.30
2010,05,04,13,20,5.20
2010,05,04,13,21,5.10
2010,05,04,13,22,5.00
2010,05,04,13,23,4.90
2010,05,04,13,24,4.90
2010,05,04,13,25,4.80
2010,05,04,13,26,4.80
2010,05,04,13,27,4.70
2010,05,04,13,28,4.70
2010,05,04,13,29,4.70
2010,05,04,13,30,4.60
2010,05,04,13,31,4.60
2010,05,04,13,32,4.60
2010,05,04,13,33,4.60
2010,05,04,13,34,4.60
2010,05,04,13,35,4.60
2010,05,04,13,36,4.60
2010,05,04,13,37,4.60
2010,05,04,13,38,4.60
2010,05,04,13,39,4.60
2010,05,04,13,40,4.50
2010,05,04,13,41,4.60
2010,05,04,13,42,4.60
2010,05,04,13,43,4.60
2010,05,04,13,44,4.60
2010,05,04,13,45,4.60
2010,05,04,13,46,4.60
2010,05,04,13,47,4.60
2010,05,04,13,48,4.60
2010,05,04,13,49,4.70
2010,05,04,13,50,4.70
2010,05,04,13,51,4.70
2010,05,04,13,52,4.80
2010,05,04,13,53,4.80
2010,05,04,13,54,4.80
2010,05,04,13,55,4.80
2010,05,04,13,56,4.90
2010,05,04,13,57,4.90
2010,05,04,13,58,5.00
2010,05,04,13,59,5.10
2010,05,04,14,00,5.20
2010,05,04,14,01,5.30
2010,05,04,14,02,5.40
2010,05,04,14,03,5.50
2010,05,04,14,04,5.60
2010,05,04,14,05,5.60
2010,05,04,14,06,5.70
2010,05,04,14,07,5.70
2010,05,04,14,08,5.80
2010,05,04,14,09,5.80
2010,05,04,14,10,5.90
2010,05,04,14,11,6.00
2010,05,04,14,12,6.10
2010,05,04,14,13,6.10
2010,05,04,14,14,6.20
2010,05,04,14,15,6.20
2010,05,04,14,16,6.20
2010,05,04,14,17,6.20
2010,05,04,14,18,6.20
2010,05,04,14,19,6.20
2010,05,04,14,20,6.20
2010,05,04,14,21,6.30
2010,05,04,14,22,6.30
2010,05,04,14,23,6.20
2010,05,04,14,24,6.20
2010,05,04,14,25,6.30
2010,05,04,14,26,6.20
2010,05,04,14,27,6.20
2010,05,04,14,28,6.20
2010,05,04,14,29,6.20
2010,05,04,14,30,6.20
2010,05,04,14,31,6.10
2010,05,04,14,32,6.10
2010,05,04,14,33,6.10
2010,05,04,14,34,6.00
2010,05,04,14,35,6.00
2010,05,04,14,36,5.90
2010,05,04,14,37,5.90
2010,05,04,14,38,5.90
2010,05,04,14,39,5.90
2010,05,04,14,40,5.80
2010,05,04,14,41,5.80
2010,05,04,14,42,5.80
2010,05,04,14,43,5.80
2010,05,04,14,44,5.80
2010,05,04,14,45,5.80
2010,05,04,14,46,5.80
2010,05,04,14,47,5.80
2010,05,04,14,48,5.80
2010,05,04,14,49,5.80
2010,05,04,14,50,5.80
2010,05,04,14,51,5.80
2010,05,04,14,52,5.80
2010,05,04,14,53,5.80
2010,05,04,14,54,5.70
2010,05,04,14,55,5.70
2010,05,04,14,56,5.70
2010,05,04,14,57,5.80
2010,05,04,14,58,5.80
2010,05,04,14,59,5.70
2010,05,04,15,00,5.70
2010,05,04,15,01,5.70
2010,05,04,15,02,5.70
2010,05,04,15,03,5.70
2010,05,04,15,04,5.70
2010,05,04,15,05,5.60
2010,05,04,15,06,5.60
2010,05,04,15,07,5.60
2010,05,04,15,08,5.60
2010,05,04,15,09,5.50
2010,05,04,15,10,5.40
2010,05,04,15,11,5.30
2010,05,04,15,12,5.10
2010,05,04,15,13,5.00
2010,05,04,15,14,4.90
2010,05,04,15,15,4.90
2010,05,04,15,16,4.80
2010,05,04,15,17,4.80
2010,05,04,15,18,4.70
2010,05,04,15,19,4.70
2010,05,04,15,20,4.70
2010,05,04,15,21,4.70
2010,05,04,15,22,4.70
2010,05,04,15,23,4.70
2010,05,04,15,24,4.70
2010,05,04,15,25,4.70
2010,05,04,15,26,4.70
2010,05,04,15,27,4.70
2010,05,04,15,28,4.70
2010,05,04,15,29,4.70
2010,05,04,15,30,4.70
2010,05,04,15,31,4.70
2010,05,04,15,32,4.70
2010,05,04,15,33,4.80
2010,05,04,15,34,4.80
2010,05,04,15,35,4.80
2010,05,04,15,36,4.80
2010,05,04,15,37,4.80
2010,05,04,15,38,4.80
2010,05,04,15,39,4.80
2010,05,04,15,40,4.90
2010,05,04,15,41,5.00
2010,05,04,15,42,5.10
2010,05,04,15,43,5.10
2010,05,04,15,44,5.20
2010,05,04,15,45,5.30
2010,05,04,15,46,5.30
2010,05,04,15,47,5.40
2010,05,04,15,48,5.40
2010,05,04,15,49,5.40
2010,05,04,15,50,5.50
2010,05,04,15,51,5.50
2010,05,04,15,52,5.50
2010,05,04,15,53,5.60
2010,05,04,15,54,5.60
2010,05,04,15,55,5.60
2010,05,04,15,56,5.60
2010,05,04,15,57,5.60
2010,05,04,15,58,5.60
2010,05,04,15,59,5.60
2010,05,04,16,00,5.60
2010,05,04,16,01,5.60
2010,05,04,16,02,5.70
2010,05,04,16,03,5.70
2010,05,04,16,04,5.70
2010,05,04,16,05,5.70
2010,05,04,16,06,5.70
2010,05,04,16,07,5.70
2010,05,04,16,08,5.70
2010,05,04,16,09,5.70
2010,05,04,16,10,5.70
2010,05,04,16,11,5.70
2010,05,04,16,12,5.70
2010,05,04,16,13,5.70
2010,05,04,16,14,5.80
2010,05,04,16,15,5.80
2010,05,04,16,16,5.70
2010,05,04,16,17,5.80
2010,05,04,16,18,5.80
2010,05,04,16,19,5.80
2010,05,04,16,20,5.80
2010,05,04,16,21,5.70
2010,05,04,16,22,5.70
2010,05,04,16,23,5.70
2010,05,04,16,24,5.70
2010,05,04,16,25,5.70
2010,05,04,16,26,5.70
2010,05,04,16,27,5.70
2010,05,04,16,28,5.60
2010,05,04,16,29,5.60
2010,05,04,16,30,5.60
2010,05,04,16,31,5.60
2010,05,04,16,32,5.60
2010,05,04,16,33,5.60
2010,05,04,16,34,5.60
2010,05,04,16,35,5.50
2010,05,04,16,36,5.50
2010,05,04,16,37,5.40
2010,05,04,16,38,5.40
2010,05,04,16,39,5.40
2010,05,04,16,40,5.40
2010,05,04,16,41,5.30
2010,05,04,16,42,5.30
2010,05,04,16,43,5.30
2010,05,04,16,44,5.20
2010,05,04,16,45,5.20
2010,05,04,16,46,5.20
2010,05,04,16,47,5.10
2010,05,04,16,48,5.10
2010,05,04,16,49,5.10
2010,05,04,16,50,5.00
2010,05,04,16,51,5.00
2010,05,04,16,52,5.00
2010,05,04,16,53,5.00
2010,05,04,16,54,5.00
2010,05,04,16,55,5.00
2010,05,04,16,56,5.00
2010,05,04,16,57,5.00
2010,05,04,16,58,5.00
2010,05,04,16,59,5.10
2010,05,04,17,00,5.10
2010,05,04,17,01,5.00
2010,05,04,17,02,5.00
2010,05,04,17,03,5.10
2010,05,04,17,04,5.10
2010,05,04,17,05,5.10
2010,05,04,17,06,5.10
2010,05,04,17,07,5.10
2010,05,04,17,08,5.10
2010,05,04,17,09,5.10
2010,05,04,17,10,5.10
2010,05,04,17,11,5.10
2010,05,04,17,12,5.20
2010,05,04,17,13,5.10
2010,05,04,17,14,5.10
2010,05,04,17,15,5.20
2010,05,04,17,16,5.20
2010,05,04,17,17,5.30
2010,05,04,17,18,5.30
2010,05,04,17,19,5.30
2010,05,04,17,20,5.30
2010,05,04,17,21,5.30
2010,05,04,17,22,5.30
2010,05,04,17,23,5.40
2010,05,04,17,24,5.40
2010,05,04,17,25,5.50
2010,05,04,17,26,5.50
2010,05,04,17,27,5.50
2010,05,04,17,28,5.60
2010,05,04,17,29,5.50
2010,05,04,17,30,5.60
2010,05,04,17,31,5.60
2010,05,04,17,32,5.60
2010,05,04,17,33,5.70
2010,05,04,17,34,5.70
2010,05,04,17,35,5.70
2010,05,04,17,36,5.70
2010,05,04,17,37,5.70
2010,05,04,17,38,5.70
2010,05,04,17,39,5.70
2010,05,04,17,40,5.70
2010,05,04,17,41,5.70
2010,05,04,17,42,5.70
2010,05,04,17,43,5.70
2010,05,04,17,44,5.70
2010,05,04,17,45,5.70
2010,05,04,17,46,5.70
2010,05,04,17,47,5.70
2010,05,04,17,48,5.70
2010,05,04,17,49,5.70
2010,05,04,17,50,5.70
2010,05,04,17,51,5.80
2010,05,04,17,52,5.80
2010,05,04,17,53,5.80
2010,05,04,17,54,5.80
2010,05,04,17,55,5.80
2010,05,04,17,56,5.80
2010,05,04,17,57,5.80
2010,05,04,17,58,5.80
2010,05,04,17,59,5.80
2010,05,04,18,00,5.80
2010,05,04,18,01,5.80
2010,05,04,18,02,5.80
2010,05,04,18,03,5.80
2010,05,04,18,04,5.80
2010,05,04,18,05,5.80